Regional Weather Roundup
Issued by NWS

Home | Current Version | Previous Version | Text Only | Print | Product List | Glossary Off
Versions: 1 2 3 4 5 6 7 8 9 10 11 12 13 14 15 16 17 18 19 20 21 22 23 24 25 26 27 28 29 30 31 32 33 34 35 36 37 38 39 40 41 42 43 44 45 46 47 48 49 50

000
ASUS43 KIND 082309
RWRIN

WEATHER ROUNDUP FOR INDIANA
NATIONAL WEATHER SERVICE INDIANAPOLIS IN
600 PM EST THU DEC 08 2016

NOTE: "FAIR" INDICATES FEW OR NO CLOUDS BELOW 12,000 FEET WITH NO
SIGNIFICANT WEATHER AND/OR OBSTRUCTIONS TO VISIBILITY.

* - STATION DOES NOT REPORT WEATHER SUCH AS PRECIPITATION OR FOG.

+ - STATION NOT QUALITY CONTROLLED BY THE NATIONAL WEATHER SERVICE.
    USE DATA WITH CAUTION...ESPECIALLY DEWPOINT AND RELATIVE
    HUMIDITY OBSERVATIONS.

INZ001>003-010>013-019-020-090000-
NORTHWEST INDIANA

CITY           SKY/WX    TMP DP  RH WIND       PRES   REMARKS
GARY /AIRPORT/ CLOUDY    23  16  74 W25       30.37R WCI   7
KNOX *+        CLOUDY    21  -4  33 W15       30.37R WCI   8
LA PORTE +     FLURRIES  19  14  79 W9        30.35R WCI   9
MICHIGAN CITY+ FLURRIES  25  18  74 NW13G20   30.35R WCI  13
MONTICELLO +   FLURRIES  20  11  67 W14G24    30.39R WCI   7
RENSSELAER +   FLURRIES  21  18  86 W15G21    30.40R WCI   8
VALPARAISO     CLOUDY    21  13  71 W15       30.36R WCI   8

$$

LMZ046-743>745-090000-
SOUTHERN LAKE MICHIGAN

STATION/POSITION TIME  TEMP    WIND        PRES    WAVE
                       AIR SEA DIR/SP/G            HT
                 (UTC) (F)     (DEG/KT/KT) (MB)    (FT)

$$

INZ004-005-014>016-021>024-090000-
NORTH CENTRAL INDIANA

CITY           SKY/WX    TMP DP  RH WIND       PRES   REMARKS
ELKHART        FLURRIES  19  16  86 W14       30.30R WCI   6
GOSHEN         CLOUDY    21  12  68 SW17      30.31R WCI   7
LOGANSPORT +   FLURRIES  21  14  73 W10       30.39R WCI  10
PERU/GRISSOM   FLURRIES  20  14  76 NW17      30.36R WCI   5
ROCHESTER +    LGT SNOW  21  19  93 W10       30.37R WCI  10
SOUTH BEND     LGT SNOW  19  16  88 SW12      30.32R FOG     WCI   7
WARSAW +       FLURRIES  19  12  73 W13       30.34R WCI   7

$$

INZ006>009-017-018-025>027-090000-
NORTHEAST INDIANA

CITY           SKY/WX    TMP DP  RH WIND       PRES   REMARKS
ANGOLA *+      CLOUDY    19  16  86 W12       30.25R WCI   7
AUBURN +       FLURRIES  21  14  73 W10G18    30.31R WCI  10
FORT WAYNE     FLURRIES  21  13  71 W18       30.33R WCI   6
HUNTINGTON +   LGT SNOW  19  15  81 W8        30.35R WCI   9
KENDALLVILLE + FLURRIES  20  14  78 W18G28    30.28R WCI   5

$$

INZ028-029-035-036-043>045-051>053-090000-
WEST CENTRAL INDIANA

CITY           SKY/WX    TMP DP  RH WIND       PRES   REMARKS
CRAWFORDSVL +  CLOUDY    20  14  76 W15G23    30.41R WCI   6
GREENCASTLE +  CLOUDY    23  16  74 W10G18    30.42R WCI  12
LAFAYETTE      CLOUDY    20  13  74 W17G23    30.42R WCI   5
TERRE HAUTE    CLOUDY    23  12  62 NW16G23   30.46R WCI  10

$$

INZ030>032-037>040-046>048-054>057-064-065-090000-
CENTRAL INDIANA

CITY           SKY/WX    TMP DP  RH WIND       PRES   REMARKS
CP ATTERBURY + CLOUDY    25  16  68 W9        30.42R WCI  15
COLUMBUS       CLOUDY    25  18  74 W12G17    30.42R WCI  14
FISHERS *+     CLOUDY    21  18  86 NW8G16    30.39R WCI  12
FRANKFORT +    FLURRIES  23  16  73 NW20      30.40R WCI   9
GREENWOOD *+   CLOUDY    23  15  71 W9G18     30.40R WCI  13
INDIANAPOLIS   FLURRIES  22  13  68 W18       30.40R WCI   7
-EAGLE CREEK   CLOUDY    23  13  65 W12       30.39R WCI  12
KOKOMO +       FLURRIES  20  14  77 W17G26    30.38R WCI   5
MARION +       FLURRIES  20  14  77 NW20G25   30.37R WCI   4
MT COMFORT *+  CLOUDY    21  14  73 W15       30.38R WCI   8
SHELBYVILLE    CLOUDY    24  13  62 W14G24    30.39R WCI  12
ZIONSVILLE +   FLURRIES  21  14  74 W10G18    30.39R WCI  10

$$

INZ033-034-041-042-049-050-058-059-090000-
EAST CENTRAL INDIANA

CITY           SKY/WX    TMP DP  RH WIND       PRES   REMARKS
MUNCIE         FLURRIES  22  15  75 W13G22    30.35R WCI  10

$$

INZ060-061-067>069-081>083-085>088-090000-
SOUTHWEST INDIANA

CITY           SKY/WX    TMP DP  RH WIND       PRES   REMARKS
EVANSVILLE     PTCLDY    28  14  55 NW8       30.49R WCI  20
HUNTINGBURG *+ CLOUDY    27  16  63 NW12      30.47R WCI  16
WASHINGTON +   CLOUDY    26  18  73 NW14      30.48R WCI  14

$$

INZ062-063-066-070>080-084-089>092-090000-
SOUTH CENTRAL AND SOUTHEAST INDIANA

CITY           SKY/WX    TMP DP  RH WIND       PRES   REMARKS
BLOOMINGTON    CLOUDY    23  12  62 W10       30.42R WCI  12
MADISON *+     CLOUDY    27  14  59 W12       30.42R WCI  16
NORTH VERNON + CLOUDY    27  21  80 W15       30.41R WCI  15
SEYMOUR +      CLOUDY    27  14  59 W8        30.43R WCI  18

$$




USA.gov is the U.S. government's official web portal to all federal, state and local government web resources and services.